Location: Newark
(50.2306°N, 14.0814°E)
Time: 01:30:32
(UTC+00:00)

N. Korean satellite - Pass Details

Date: 07 December 2019
Orbit: 454 x 507 km, 97.2° (Epoch: 23 January)

Event Time Altitude Azimuth Distance (km) Brightness Sun altitude
Rises 04:41:29 0° 17° (NNE) 2,575 10.3 -19.2°
Reaches altitude 10° 04:43:38 10° 24° (NNE) 1,679 9.4 -18.9°
Maximum altitude 04:47:07 46° 99° (E) 656 7.6 -18.4°
Drops below altitude 10° 04:50:31 10° 174° (S) 1,634 9.5 -17.8°
Sets 04:52:36 0° 180° (S) 2,497 10.4 -17.5°
